This demonstration page uses our WeatherBlox Daily Observations layout. Learn more.

Left ArrowRight Arrow

Hourly Observations for February 7, 2017

Temp ( °F °C ) Dew Point ( °F °C ) Humidity (%) Winds ( mph kmh ) Pressure ( in mb ) Visibility ( mi km ) Precip ( " mm )
12:51 am 00:51 Clear 44 6.7 28 -2.2 53 53 E 5 7 30.02 1017 10 16 N/A
1:51 am 01:51 Clear 42 5.6 28 -2.2 58 58 N N/A 30.02 1017 10 16 N/A
2:51 am 02:51 Clear 40 4.4 28 -2.2 63 63 ESE 5 7 30.03 1017 10 16 N/A
3:51 am 03:51 Clear 40 4.4 28 -2.2 63 63 SSE 5 7 30.04 1017 10 16 N/A
4:51 am 04:51 Clear 40 4.4 28 -2.2 63 63 ENE 3 6 30.04 1017 10 16 N/A
5:51 am 05:51 Clear 39 3.9 28 -2.2 65 65 N N/A 30.06 1018 10 16 N/A
6:51 am 06:51 Clear 37 2.8 29 -1.7 73 73 NNE 3 6 30.07 1018 10 16 N/A
7:51 am 07:51 Sunny 43 6.1 31 -0.6 63 63 ESE 6 9 30.05 1018 10 16 N/A
8:51 am 08:51 Sunny 48 8.9 33 0.6 56 56 SE 5 7 30.07 1018 10 16 N/A
9:51 am 09:51 Sunny 53 11.7 36 2.2 52 52 N N/A 30.06 1018 10 16 N/A
10:51 am 10:51 Sunny 61 16.1 41 5 48 48 NW 12 19 30.05 1018 10 16 N/A
11:51 am 11:51 Cloudy 62 16.7 41 5 46 46 NW 9 15 30.04 1017 10 16 N/A
12:51 pm 12:51 Partly Cloudy 65 18.3 42 5.6 43 43 WNW 16 26 30.00 1016 10 16 N/A
1:51 pm 13:51 Cloudy 64 17.8 41 5 43 43 NNW 17 28 29.99 1016 10 16 N/A
2:51 pm 14:51 Mostly Cloudy 67 19.4 42 5.6 41 41 NW 17 28 29.97 1015 10 16 N/A
3:51 pm 15:51 Sunny 66 18.9 42 5.6 42 42 NW 14 22 29.97 1015 10 16 N/A
4:51 pm 16:51 Sunny 65 18.3 41 5 42 42 NW 18 30 29.98 1015 10 16 N/A
5:51 pm 17:51 Sunny 62 16.7 41 5 46 46 NW 13 20 29.99 1016 10 16 N/A
6:51 pm 18:51 Clear 59 15 42 5.6 54 54 NW 9 15 30.01 1016 10 16 N/A
7:51 pm 19:51 Clear 58 14.4 42 5.6 56 56 NW 12 19 30.01 1016 10 16 N/A
8:51 pm 20:51 Clear 55 12.8 42 5.6 62 62 NW 10 17 30.03 1017 10 16 N/A
9:51 pm 21:51 Clear 55 12.8 42 5.6 62 62 NW 14 22 30.03 1017 10 16 N/A
10:51 pm 22:51 Clear 56 13.3 42 5.6 60 60 NW 13 20 30.03 1017 10 16 N/A
11:51 pm 23:51 Clear 54 12.2 43 6.1 67 67 NW 12 19 30.05 1018 10 16 N/A

Powered by AerisWeather